STARLINK-2737 (48675 NORAD) Tracking and Keplerian Element Data

This shows tracking and keplerian element data for the satellite.

Feedback or suggestion? Click here.




ElementValue
Catalog48675
NameSTARLINK-2737
Epoch Orbit181
Epoch Day170.58334491
Epoch Year2021
RAAN306.2619
Inclination53.0478
Eccentricity0.0001148
Argument of Perigee34.0874
Mean Anonmoly90.142
Mean Motion15.73242771
Decay Rate-6.54E-05
L11 48675U 21044AP 21170.58334491 -.00006540 00000-0 -42124-4 0 9993
L22 48675 53.0478 306.2619 0001148 34.0874 90.1420 15.73242771 1811

Live tracking and technical data element details for STARLINK-2737 (NORAD 48675). STARLINK-2737 can be tracked NOW for your location showing map with azimuth and elevation plus other details from your city location.

Track the satellite on the map from your city or location and see movement details for azimuth, elevation, latitude, longitude, range, height, and movement on the map or in text.







IsCatalogInMostPopularTable: catalog: 48675, numindb: 6
Update: records affected: 1



GetName: 48675 STARLINK-2737

Hit Count: updated at: Mon, 21 Jun 2021 03:48:37 GMT